CW8027 Weather Reports


time (UTC)temp
C
wind
direction
speed
KPH
gust
KPH
rain 1hr
cm
rain 24hr
cm
rain mn
cm
humidity
%
barometer
mb
20260504045028 8 242 3.2 12.9 0.00 0.00 0.00 58 1005.8
20260504044030 8 213 6.4 14.5 0.00 0.00 0.00 58 1005.8
20260504043037 8 209 8.0 12.9 0.00 0.00 0.00 57 1005.9
20260504042046 8 179 6.4 16.1 0.00 0.00 0.00 56 1006.1
20260504041046 8 213 4.8 12.9 0.00 0.00 0.00 57 1006.0
20260504040106 7 195 4.8 9.7 0.00 0.00 0.00 59 1006.0
20260504035041 7 214 6.4 16.1 0.00 0.00 0.00 62 1006.0
20260504034051 7 168 4.8 9.7 0.00 0.00 0.00 62 1005.9
20260504033028 8 176 6.4 11.3 0.00 0.00 0.00 60 1006.0
20260504032029 8 181 6.4 11.3 0.00 0.00 0.00 56 1006.0
20260504031023 8 171 4.8 16.1 0.00 0.00 0.00 54 1006.0
20260504030026 8 164 8.0 19.3 0.00 0.00 0.00 53 1006.0
20260504025035 8 214 9.7 16.1 0.00 0.00 0.00 53 1006.0
20260504024037 8 189 6.4 12.9 0.00 0.00 0.00 53 1006.2
20260504023029 9 198 4.8 11.3 0.00 0.00 0.00 52 1006.3
20260504022032 9 180 4.8 16.1 0.00 0.00 0.00 51 1006.3
20260504021040 9 236 8.0 14.5 0.00 0.00 0.00 49 1006.5
20260504020042 10 190 6.4 17.7 0.00 0.00 0.00 48 1006.5
20260504015031 10 227 11.3 20.9 0.00 0.00 0.00 48 1006.7
20260504014031 10 203 8.0 19.3 0.00 0.00 0.00 47 1006.6
20260504013041 10 165 14.5 25.7 0.00 0.00 0.00 47 1006.6
20260504012043 10 234 11.3 25.7 0.00 0.00 0.00 47 1006.7
20260504011033 10 249 11.3 19.3 0.00 0.00 0.00 46 1006.6
20260504010033 10 228 9.7 19.3 0.00 0.00 0.00 46 1006.7
20260504005041 10 211 11.3 16.1 0.00 0.00 0.00 45 1006.4
20260504004114 11 211 11.3 19.3 0.00 0.00 0.00 44 1006.4
20260504003035 11 257 12.9 24.1 0.00 0.00 0.00 44 1006.4
20260504002046 11 215 11.3 25.7 0.00 0.00 0.00 43 1006.3
20260504001027 11 221 11.3 25.7 0.00 0.00 0.00 43 1006.3
20260504000028 11 221 11.3 25.7 0.00 0.00 0.00 42 1006.2
20260503235035 11 235 8.0 24.1 0.00 0.00 0.00 41 1006.3
20260503234037 11 198 16.1 25.7 0.00 0.00 0.00 39 1006.5
20260503233028 11 275 9.7 20.9 0.00 0.00 0.00 38 1006.2
20260503232032 12 235 6.4 19.3 0.00 0.00 0.00 36 1006.1
20260503231037 12 316 6.4 14.5 0.00 0.00 0.00 36 1006.2
20260503230049 12 289 9.7 19.3 0.00 0.00 0.00 35 1006.3
20260503225102 12 290 8.0 27.4 0.00 0.00 0.00 36 1006.3
20260503224045 12 242 16.1 27.4 0.00 0.00 0.00 35 1006.2
20260503223055 12 266 16.1 24.1 0.00 0.00 0.00 35 1006.2
20260503222032 12 254 14.5 25.7 0.00 0.00 0.00 35 1006.2
20260503221030 12 289 11.3 25.7 0.00 0.00 0.00 35 1006.2
20260503220038 12 259 14.5 24.1 0.00 0.00 0.00 35 1006.3
20260503215048 12 219 11.3 24.1 0.00 0.00 0.00 35 1006.3
20260503214046 12 249 16.1 32.2 0.00 0.00 0.00 34 1006.3
20260503213049 12 292 14.5 24.1 0.00 0.00 0.00 34 1006.3
20260503212032 12 278 8.0 29.0 0.00 0.00 0.00 35 1006.3
20260503211028 12 240 16.1 32.2 0.00 0.00 0.00 36 1006.1
20260503210038 11 303 14.5 35.4 0.00 0.00 0.00 38 1006.3
20260503205048 11 258 14.5 27.4 0.00 0.00 0.00 38 1006.3
20260503204030 11 240 16.1 32.2 0.00 0.00 0.00 38 1006.3
20260503203039 12 283 17.7 29.0 0.00 0.00 0.00 38 1006.5
20260503202036 11 278 12.9 32.2 0.00 0.00 0.00 39 1006.5
20260503201028 11 232 17.7 29.0 0.00 0.00 0.00 38 1006.6
20260503200057 11 274 16.1 27.4 0.00 0.00 0.00 40 1006.6
20260503195057 11 248 14.5 25.7 0.00 0.00 0.00 40 1006.8
20260503194025 11 266 14.5 27.4 0.00 0.00 0.00 40 1007.1
20260503193028 11 259 9.7 22.5 0.00 0.00 0.00 40 1007.1
20260503192034 11 214 14.5 25.7 0.00 0.00 0.00 40 1007.2
20260503191037 11 273 16.1 29.0 0.00 0.00 0.00 41 1007.2
20260503190045 11 252 14.5 30.6 0.00 0.00 0.00 42 1007.3
20260503185051 11 291 8.0 25.7 0.00 0.10 0.00 41 1007.5
20260503184032 10 251 14.5 24.1 0.00 0.10 0.00 41 1007.6
20260503183044 11 277 6.4 17.7 0.00 0.10 0.00 43 1007.6
20260503182024 10 291 8.0 22.5 0.00 0.10 0.00 43 1007.8
20260503181051 10 289 9.7 19.3 0.00 0.10 0.00 44 1008.0
20260503180030 10 264 19.3 29.0 0.00 0.41 0.00 45 1008.0
20260503175040 10 302 16.1 25.7 0.00 0.41 0.00 44 1008.0
20260503174051 9 264 6.4 19.3 0.00 0.41 0.00 48 1008.1
20260503173031 9 281 12.9 22.5 0.00 0.41 0.00 47 1008.1
20260503172033 9 278 8.0 19.3 0.00 0.41 0.00 49 1008.1
20260503171024 9 303 8.0 22.5 0.00 0.41 0.00 49 1008.4
20260503131034 6 53 1.6 4.8 0.00 0.41 0.00 69 1011.1
20260503081035 3 280 1.6 6.4 0.00 1.60 0.00 84 1011.0